GW2326 Weather Reports


time (UTC)temp
F
wind
direction
speed
knots
gust
knots
rain 1hr
in
rain 24hr
in
rain mn
in
humidity
%
barometer
mb
20260504034046 64 360 7.0 8.7 0.00 0.00 0.00 65 1017.6
20260504033548 64 360 6.1 7.8 0.00 0.00 0.00 65 1017.6
20260504033105 65 360 6.1 7.8 0.00 0.00 0.00 64 1017.6
20260504032548 65 360 6.1 7.8 0.00 0.00 0.00 64 1017.6
20260504032049 65 360 4.3 7.8 0.00 0.00 0.00 64 1017.6
20260504031608 65 360 4.3 7.8 0.00 0.00 0.00 65 1017.5
20260504031049 65 360 4.3 7.0 0.00 0.00 0.00 65 1017.5
20260504030549 65 360 5.2 7.0 0.00 0.00 0.00 64 1017.4
20260504030114 65 360 4.3 5.2 0.00 0.00 0.00 64 1017.4
20260504025549 66 360 4.3 7.8 0.00 0.00 0.00 63 1017.6
20260504025050 66 360 4.3 8.7 0.00 0.00 0.00 61 1017.7
20260504024554 67 360 5.2 8.7 0.00 0.00 0.00 60 1017.4
20260504024048 67 360 7.0 8.7 0.00 0.00 0.00 60 1017.3
20260504023548 67 360 7.0 8.7 0.00 0.00 0.00 60 1017.3
20260504023054 67 360 7.0 8.7 0.00 0.00 0.00 60 1017.2
20260504022549 67 360 7.0 8.7 0.00 0.00 0.00 59 1017.3
20260504022048 67 360 7.0 9.6 0.00 0.00 0.00 59 1017.3
20260504021603 67 360 7.0 9.6 0.00 0.00 0.00 59 1017.3
20260504021052 68 360 7.0 8.7 0.00 0.00 0.00 59 1017.4
20260504020549 68 360 6.1 8.7 0.00 0.00 0.00 58 1017.3
20260504020053 68 360 5.2 7.0 0.00 0.00 0.00 57 1017.2
20260504015550 69 360 4.3 7.0 0.00 0.00 0.00 56 1017.3
20260504015051 69 360 3.5 7.0 0.00 0.00 0.00 55 1017.4
20260504014554 69 360 3.5 7.0 0.00 0.00 0.00 54 1017.3
20260504014049 70 360 5.2 8.7 0.00 0.00 0.00 53 1017.2
20260504013549 70 181 5.2 8.7 0.00 0.00 0.00 52 1017.2
20260504013055 71 194 6.1 8.7 0.00 0.00 0.00 52 1017.1
20260504012550 71 360 6.1 8.7 0.00 0.00 0.00 51 1017.2
20260504012048 72 173 6.1 10.4 0.00 0.00 0.00 50 1017.1
20260504011553 72 184 7.8 10.4 0.00 0.00 0.00 48 1017.1
20260504011047 72 170 7.0 10.4 0.00 0.00 0.00 47 1017.2
20260504010549 73 190 7.0 9.6 0.00 0.00 0.00 47 1017.2
20260504010054 73 360 7.8 10.4 0.00 0.00 0.00 46 1017.3
20260504005550 73 360 7.8 12.2 0.00 0.00 0.00 46 1017.3
20260504005050 73 360 8.7 12.2 0.00 0.00 0.00 46 1017.3
20260504004553 73 360 8.7 13.0 0.00 0.00 0.00 45 1017.2
20260504004049 74 173 9.6 14.8 0.00 0.00 0.00 45 1017.2
20260504003549 74 165 9.6 14.8 0.00 0.00 0.00 44 1017.2
20260504003056 74 172 7.8 13.9 0.00 0.00 0.00 43 1017.2
20260504002549 74 170 8.7 13.9 0.00 0.00 0.00 43 1017.2
20260504002049 74 165 9.6 14.8 0.00 0.00 0.00 43 1017.2
20260504001556 74 167 9.6 14.8 0.00 0.00 0.00 42 1017.3
20260504001050 75 188 7.8 11.3 0.00 0.00 0.00 42 1017.4
20260504000550 75 198 8.7 20.0 0.00 0.00 0.00 41 1017.4
20260504000136 75 191 10.4 20.0 0.00 0.00 0.00 41 1017.6
20260503235549 75 167 12.2 20.0 0.00 0.00 0.00 40 1017.7
20260503235050 75 225 10.4 20.9 0.00 0.00 0.00 39 1017.6
20260503234554 75 200 12.2 21.7 0.00 0.00 0.00 40 1017.5
20260503234050 75 190 13.0 21.7 0.00 0.00 0.00 39 1017.7
20260503233550 76 213 11.3 16.5 0.00 0.00 0.00 39 1017.7
20260503233054 76 214 9.6 14.8 0.00 0.00 0.00 39 1017.9
20260503232553 76 213 8.7 14.8 0.00 0.00 0.00 40 1017.9
20260503232049 76 169 9.6 14.8 0.00 0.00 0.00 40 1017.8
20260503231558 76 213 7.8 20.0 0.00 0.00 0.00 40 1017.8
20260503231050 76 194 11.3 20.0 0.00 0.00 0.00 37 1017.8
20260503230550 76 214 8.7 20.0 0.00 0.00 0.00 38 1017.8
20260503230055 76 176 12.2 20.0 0.00 0.00 0.00 38 1017.7
20260503225549 76 178 12.2 18.2 0.00 0.00 0.00 39 1017.9
20260503225049 76 165 8.7 15.6 0.00 0.00 0.00 37 1017.8
20260503224553 76 187 9.6 15.6 0.00 0.00 0.00 37 1018.0
20260503224049 76 198 9.6 17.4 0.00 0.00 0.00 37 1018.1
20260503223549 76 198 8.7 17.4 0.00 0.00 0.00 37 1018.1
20260503223054 76 167 12.2 17.4 0.00 0.00 0.00 38 1018.3
20260503222549 76 166 9.6 17.4 0.00 0.00 0.00 37 1018.3
20260503222049 76 208 9.6 19.1 0.00 0.00 0.00 37 1018.5
20260503221602 76 175 9.6 19.1 0.00 0.00 0.00 37 1018.4
20260503221052 76 215 10.4 19.1 0.00 0.00 0.00 37 1018.3
20260503220550 76 231 9.6 17.4 0.00 0.00 0.00 37 1018.3
20260503220056 76 169 8.7 15.6 0.00 0.00 0.00 37 1018.4
20260503215549 76 172 8.7 18.2 0.00 0.00 0.00 37 1018.4
20260503215049 76 188 11.3 20.9 0.00 0.00 0.00 36 1018.4
20260503214552 76 185 10.4 20.9 0.00 0.00 0.00 36 1018.4
20260503214051 77 171 11.3 20.9 0.00 0.00 0.00 36 1018.7
20260503213549 77 221 7.8 15.6 0.00 0.00 0.00 36 1018.7
20260503213054 76 219 10.4 15.6 0.00 0.00 0.00 37 1018.9
20260503212550 76 202 7.8 15.6 0.00 0.00 0.00 40 1019.2
20260503212050 76 224 10.4 16.5 0.00 0.00 0.00 38 1019.1
20260503211601 76 228 8.7 16.5 0.00 0.00 0.00 37 1019.3
20260503211049 76 196 7.0 19.1 0.00 0.00 0.00 37 1019.3
20260503210550 76 167 9.6 19.1 0.00 0.00 0.00 38 1019.4
20260503210053 76 209 11.3 25.2 0.00 0.00 0.00 37 1019.6
20260503205550 77 245 9.6 25.2 0.00 0.00 0.00 36 1019.7
20260503205053 76 168 8.7 14.8 0.00 0.00 0.00 37 1019.6
20260503204556 76 188 8.7 19.1 0.00 0.00 0.00 36 1019.8
20260503204049 76 182 11.3 19.1 0.00 0.00 0.00 37 1020.0
20260503203552 76 187 11.3 20.9 0.00 0.00 0.00 37 1020.0
20260503203057 76 195 11.3 20.9 0.00 0.00 0.00 37 1020.1
20260503202549 76 201 7.8 16.5 0.00 0.00 0.00 37 1020.1
20260503202053 76 225 11.3 17.4 0.00 0.00 0.00 38 1020.3
20260503201551 76 218 9.6 20.9 0.00 0.00 0.00 38 1020.4
20260503201051 76 181 7.8 20.9 0.00 0.00 0.00 39 1020.7
20260503200551 76 225 9.6 20.9 0.00 0.00 0.00 38 1020.5
20260503200058 76 192 10.4 20.9 0.00 0.00 0.00 39 1020.8
20260503195549 76 194 8.7 17.4 0.00 0.00 0.00 38 1020.7
20260503195050 76 238 9.6 23.5 0.00 0.00 0.00 39 1020.9
20260503194603 76 217 13.0 23.5 0.00 0.00 0.00 38 1020.8
20260503194050 76 179 12.2 20.0 0.00 0.00 0.00 40 1021.1
20260503193550 75 190 7.0 25.2 0.00 0.00 0.00 38 1021.2
20260503193059 76 231 11.3 27.8 0.00 0.00 0.00 38 1021.4
20260503192549 76 221 11.3 27.8 0.00 0.00 0.00 40 1021.4
20260503192049 75 213 7.0 19.1 0.00 0.00 0.00 39 1021.3
20260503191554 75 192 11.3 19.1 0.00 0.00 0.00 39 1021.7
20260503191052 75 173 7.8 15.6 0.00 0.00 0.00 40 1021.5
20260503190551 75 175 8.7 20.9 0.00 0.00 0.00 41 1021.8
20260503190057 75 232 10.4 20.9 0.00 0.00 0.00 40 1021.8
20260503185549 74 171 11.3 20.0 0.00 0.00 0.00 40 1022.0
20260503185049 74 173 11.3 20.0 0.00 0.00 0.00 40 1022.0
20260503184605 74 171 9.6 20.0 0.00 0.00 0.00 40 1022.0
20260503184050 74 159 13.0 22.6 0.00 0.00 0.00 38 1022.0
20260503183549 74 157 11.3 22.6 0.00 0.00 0.00 41 1022.0
20260503183101 74 191 13.9 20.9 0.00 0.00 0.00 40 1022.1
20260503182549 74 148 7.8 15.6 0.00 0.00 0.00 41 1022.2
20260503182049 74 184 7.8 14.8 0.00 0.00 0.00 42 1022.4
20260503181557 74 169 8.7 15.6 0.00 0.00 0.00 41 1022.4
20260503181050 74 215 9.6 20.9 0.00 0.00 0.00 40 1022.6
20260503180550 74 215 10.4 20.9 0.00 0.00 0.00 38 1022.8
20260503180057 73 219 8.7 18.2 0.00 0.00 0.00 40 1022.7
20260503175550 73 179 13.9 18.2 0.00 0.00 0.00 40 1023.0
20260503175050 73 175 7.8 15.6 0.00 0.00 0.00 39 1023.2
20260503174553 73 203 10.4 15.6 0.00 0.00 0.00 42 1023.2
20260503174049 73 235 10.4 15.6 0.00 0.00 0.00 43 1023.2
20260503173553 73 231 7.8 16.5 0.00 0.00 0.00 42 1023.3
20260503173056 73 223 10.4 16.5 0.00 0.00 0.00 42 1023.3
20260503172549 72 223 10.4 16.5 0.00 0.00 0.00 42 1023.6
20260503172050 72 246 8.7 14.8 0.00 0.00 0.00 44 1023.5
20260503171610 72 360 8.7 19.1 0.00 0.00 0.00 45 1023.4
20260503171053 72 225 12.2 19.1 0.00 0.00 0.00 43 1023.7
20260503170550 72 252 10.4 18.2 0.00 0.00 0.00 45 1023.7
20260503170105 72 228 10.4 15.6 0.00 0.00 0.00 45 1023.8
20260503150547 65 360 9.6 14.8 0.00 0.00 0.00 64 1025.0
20260503131047 55 360 4.3 7.8 0.00 0.00 0.00 81 1024.0
20260503130549 55 360 3.5 7.0 0.00 0.00 0.00 82 1024.0
20260503110550 51 360 5.2 7.8 0.00 0.00 0.00 84 1023.2
20260503090107 53 360 4.3 7.8 0.00 0.00 0.00 83 1023.4
20260503081551 55 360 1.7 4.3 0.00 0.00 0.00 81 1023.4
20260503081050 55 360 2.6 5.2 0.00 0.00 0.00 81 1023.4
20260503080550 55 360 2.6 5.2 0.00 0.00 0.00 81 1023.4
20260503072553 55 360 2.6 4.3 0.00 0.00 0.00 83 1023.4
20260503072051 55 360 2.6 5.2 0.00 0.00 0.00 83 1023.4
20260503071606 54 360 3.5 5.2 0.00 0.00 0.00 83 1023.3
20260503071047 54 360 3.5 5.2 0.00 0.00 0.00 84 1023.4
20260503070550 54 360 3.5 4.3 0.00 0.00 0.00 85 1023.4
20260503055049 56 360 2.6 4.3 0.00 0.00 0.00 82 1023.8
20260503054600 56 360 2.6 3.5 0.00 0.00 0.00 82 1023.8
20260503054049 56 360 1.7 2.6 0.00 0.00 0.00 82 1023.7
20260503053550 56 360 1.7 3.5 0.00 0.00 0.00 82 1023.8
20260503053051 56 360 1.7 3.5 0.00 0.00 0.00 82 1023.8
20260503052552 56 360 2.6 3.5 0.00 0.00 0.00 81 1023.8
20260503052048 57 360 1.7 2.6 0.00 0.00 0.00 81 1023.7
20260503051551 57 360 1.7 4.3 0.00 0.00 0.00 80 1023.7
20260503051048 57 360 1.7 4.3 0.00 0.00 0.00 80 1023.6
20260503050550 57 360 2.6 4.3 0.00 0.00 0.00 80 1023.6
20260503050054 57 360 3.5 4.3 0.00 0.00 0.00 80 1023.5
20260503045550 58 360 2.6 4.3 0.00 0.00 0.00 80 1023.5
20260503045046 58 360 2.6 4.3 0.00 0.00 0.00 79 1023.6
20260503044554 58 360 2.6 4.3 0.00 0.00 0.00 79 1023.7
20260503044049 58 360 2.6 4.3 0.00 0.00 0.00 79 1023.7
20260503043554 58 360 2.6 3.5 0.00 0.00 0.00 78 1023.7
20260503043051 59 360 2.6 4.3 0.00 0.00 0.00 78 1023.8
20260503042553 59 360 1.7 4.3 0.00 0.00 0.00 77 1023.9
20260503042050 59 360 3.5 5.2 0.00 0.00 0.00 76 1023.9
20260503041554 59 360 3.5 5.2 0.00 0.00 0.00 75 1024.0
20260503041049 60 360 3.5 5.2 0.00 0.00 0.00 75 1023.9
20260503040549 60 360 3.5 5.2 0.00 0.00 0.00 75 1023.8
20260503040054 60 360 3.5 5.2 0.00 0.00 0.00 74 1023.8
20260503035549 60 360 3.5 5.2 0.00 0.00 0.00 74 1023.8
20260503035049 60 360 2.6 4.3 0.00 0.00 0.00 74 1023.7
20260503034556 60 360 2.6 3.5 0.00 0.00 0.00 74 1023.4